Location: Lombard
(41.8800°N, 88.0080°W)
Time: 22:56:22
(UTC-05:00)

Tiros 1 - Pass Details

Date: 30 January 2023
Orbit: 628 x 662 km, 48.4° (Epoch: 20 March)

Event Time Altitude Azimuth Distance (km) Brightness Sun altitude
Rises 06:12:30 0° 296° (WNW) 2,942 - -10.4°
Reaches altitude 10° 06:14:52 10° 301° (WNW) 2,037 - -9.9°
Exits shadow 06:15:12 12° 302° (WNW) 1,913 9.0 -9.9°
Maximum altitude 06:19:29 56° 20° (NNE) 771 7.6 -9.1°
Drops below altitude 10° 06:24:09 10° 99° (E) 2,055 11.4 -8.3°
Sets 06:26:33 0° 103° (ESE) 2,969 13.1 -7.9°
